| time (UTC) | temp C | wind direction | speed KPH | gust KPH | rain 1hr cm | rain 24hr cm | rain mn cm | humidity % | barometer mb |
| 20260506051042 | 9 | 127 | 6.4 | 19.3 | 0.00 | 0.00 | 0.00 | 72 | 1012.1 |
| 20260506050514 | 9 | 27 | 6.4 | 12.9 | 0.00 | 0.00 | 0.00 | 72 | 1011.9 |
| 20260506045046 | 9 | 360 | 4.8 | 16.1 | 0.00 | 0.03 | 0.00 | 74 | 1012.5 |
| 20260506044532 | 9 | 5 | 4.8 | 17.7 | 0.00 | 0.03 | 0.00 | 74 | 1012.8 |
| 20260506044052 | 9 | 332 | 4.8 | 17.7 | 0.00 | 0.03 | 0.00 | 74 | 1012.8 |
| 20260506043533 | 9 | 15 | 6.4 | 14.5 | 0.00 | 0.03 | 0.00 | 74 | 1012.7 |
| 20260506043010 | 9 | 360 | 6.4 | 14.5 | 0.00 | 0.03 | 0.00 | 75 | 1012.8 |
| 20260506042541 | 9 | 336 | 6.4 | 11.3 | 0.00 | 0.03 | 0.00 | 75 | 1012.8 |
| 20260506042019 | 9 | 350 | 6.4 | 14.5 | 0.00 | 0.03 | 0.00 | 76 | 1012.7 |
| 20260506041557 | 9 | 360 | 4.8 | 14.5 | 0.00 | 0.03 | 0.00 | 76 | 1012.7 |
| 20260506041022 | 9 | 360 | 4.8 | 14.5 | 0.00 | 0.03 | 0.00 | 76 | 1012.9 |
| 20260506040552 | 9 | 360 | 3.2 | 14.5 | 0.00 | 0.03 | 0.00 | 77 | 1012.8 |
| 20260506040037 | 9 | 336 | 8.0 | 14.5 | 0.00 | 0.03 | 0.00 | 77 | 1012.8 |
| 20260506035506 | 9 | 76 | 3.2 | 12.9 | 0.00 | 0.03 | 0.00 | 78 | 1012.8 |
| 20260506035024 | 9 | 17 | 3.2 | 12.9 | 0.00 | 0.03 | 0.00 | 79 | 1012.7 |
| 20260506034604 | 9 | 27 | 1.6 | 17.7 | 0.00 | 0.03 | 0.00 | 79 | 1012.6 |
| 20260506034503 | 9 | 26 | 1.6 | 17.7 | 0.00 | 0.03 | 0.00 | 79 | 1012.6 |
| 20260506034021 | 9 | 53 | 4.8 | 17.7 | 0.00 | 0.03 | 0.00 | 79 | 1012.3 |
| 20260506033543 | 9 | 360 | 4.8 | 11.3 | 0.00 | 0.03 | 0.00 | 79 | 1012.4 |
| 20260506033018 | 9 | 346 | 1.6 | 11.3 | 0.00 | 0.03 | 0.00 | 79 | 1012.4 |
| 20260506032541 | 9 | 342 | 6.4 | 11.3 | 0.00 | 0.03 | 0.00 | 79 | 1012.5 |
| 20260506032100 | 9 | 13 | 3.2 | 9.7 | 0.00 | 0.03 | 0.00 | 80 | 1012.4 |
| 20260506032007 | 9 | 14 | 3.2 | 9.7 | 0.00 | 0.03 | 0.00 | 80 | 1012.4 |
| 20260506031543 | 9 | 360 | 3.2 | 9.7 | 0.00 | 0.03 | 0.00 | 80 | 1012.3 |
| 20260506031018 | 9 | 27 | 3.2 | 12.9 | 0.00 | 0.03 | 0.00 | 80 | 1012.1 |
| 20260506030550 | 9 | 355 | 4.8 | 12.9 | 0.00 | 0.03 | 0.00 | 80 | 1012.1 |
| 20260506030035 | 9 | 341 | 3.2 | 11.3 | 0.00 | 0.03 | 0.00 | 80 | 1012.0 |
| 20260506025548 | 9 | 4 | 4.8 | 11.3 | 0.00 | 0.03 | 0.00 | 80 | 1011.8 |
| 20260506025025 | 9 | 17 | 4.8 | 11.3 | 0.00 | 0.03 | 0.00 | 80 | 1011.3 |
| 20260506024616 | 9 | 6 | 1.6 | 11.3 | 0.00 | 0.03 | 0.00 | 80 | 1011.3 |
| 20260506024505 | 9 | 9 | 0.0 | 11.3 | 0.00 | 0.03 | 0.00 | 80 | 1011.3 |
| 20260506024031 | 9 | 360 | 6.4 | 11.3 | 0.00 | 0.03 | 0.00 | 80 | 1011.4 |
| 20260506023559 | 9 | 350 | 3.2 | 14.5 | 0.00 | 0.03 | 0.00 | 80 | 1011.3 |
| 20260506023507 | 9 | 350 | 3.2 | 14.5 | 0.00 | 0.03 | 0.00 | 80 | 1011.3 |
| 20260506023036 | 9 | 360 | 3.2 | 12.9 | 0.00 | 0.03 | 0.00 | 79 | 1011.1 |
| 20260506022513 | 9 | 53 | 1.6 | 16.1 | 0.00 | 0.03 | 0.00 | 79 | 1010.9 |
| 20260506022038 | 9 | 75 | 4.8 | 16.1 | 0.00 | 0.03 | 0.00 | 79 | 1010.7 |
| 20260506021508 | 9 | 343 | 4.8 | 19.3 | 0.00 | 0.03 | 0.00 | 79 | 1010.6 |
| 20260506021044 | 9 | 70 | 8.0 | 19.3 | 0.00 | 0.03 | 0.00 | 79 | 1010.6 |
| 20260506020505 | 9 | 12 | 4.8 | 16.1 | 0.00 | 0.03 | 0.00 | 79 | 1010.3 |
| 20260506020025 | 9 | 15 | 3.2 | 20.9 | 0.00 | 0.03 | 0.00 | 79 | 1010.4 |
| 20260506015554 | 9 | 30 | 4.8 | 20.9 | 0.00 | 0.03 | 0.00 | 79 | 1010.2 |
| 20260506015033 | 9 | 340 | 4.8 | 14.5 | 0.00 | 0.03 | 0.00 | 79 | 1010.3 |
| 20260506014600 | 9 | 25 | 6.4 | 14.5 | 0.00 | 0.03 | 0.00 | 79 | 1010.3 |
| 20260506014508 | 9 | 6 | 6.4 | 14.5 | 0.00 | 0.03 | 0.00 | 79 | 1010.1 |
| 20260506014034 | 9 | 29 | 6.4 | 12.9 | 0.00 | 0.03 | 0.00 | 79 | 1010.0 |
| 20260506013510 | 9 | 360 | 3.2 | 11.3 | 0.00 | 0.03 | 0.00 | 79 | 1009.7 |
| 20260506013052 | 9 | 350 | 3.2 | 12.9 | 0.00 | 0.03 | 0.00 | 79 | 1009.6 |
| 20260506012510 | 9 | 360 | 6.4 | 12.9 | 0.00 | 0.03 | 0.00 | 79 | 1009.7 |
| 20260506012031 | 9 | 31 | 3.2 | 12.9 | 0.00 | 0.03 | 0.00 | 79 | 1009.7 |
| 20260506011530 | 9 | 24 | 3.2 | 12.9 | 0.00 | 0.03 | 0.00 | 79 | 1009.6 |
| 20260506011050 | 9 | 11 | 4.8 | 14.5 | 0.00 | 0.03 | 0.00 | 79 | 1009.8 |
| 20260506010510 | 9 | 22 | 3.2 | 17.7 | 0.00 | 0.03 | 0.00 | 79 | 1009.5 |
| 20260506010038 | 9 | 29 | 6.4 | 17.7 | 0.00 | 0.03 | 0.00 | 79 | 1009.6 |
| 20260506005519 | 9 | 9 | 6.4 | 11.3 | 0.00 | 0.03 | 0.00 | 79 | 1009.7 |
| 20260506005045 | 9 | 4 | 1.6 | 14.5 | 0.00 | 0.03 | 0.00 | 78 | 1009.5 |
| 20260506004533 | 9 | 10 | 6.4 | 14.5 | 0.00 | 0.03 | 0.00 | 78 | 1009.5 |
| 20260506004056 | 9 | 360 | 6.4 | 20.9 | 0.00 | 0.03 | 0.00 | 78 | 1009.3 |
| 20260506003532 | 10 | 30 | 8.0 | 20.9 | 0.00 | 0.03 | 0.00 | 78 | 1009.4 |
| 20260506003010 | 10 | 4 | 4.8 | 12.9 | 0.00 | 0.03 | 0.00 | 77 | 1009.2 |
| 20260506002548 | 10 | 350 | 4.8 | 12.9 | 0.00 | 0.03 | 0.00 | 77 | 1009.3 |
| 20260506002012 | 10 | 7 | 4.8 | 12.9 | 0.00 | 0.03 | 0.00 | 77 | 1009.0 |
| 20260506001546 | 10 | 54 | 1.6 | 14.5 | 0.00 | 0.03 | 0.00 | 77 | 1009.2 |
| 20260506001008 | 10 | 96 | 4.8 | 20.9 | 0.00 | 0.03 | 0.00 | 77 | 1009.3 |
| 20260506000533 | 10 | 46 | 9.7 | 20.9 | 0.00 | 0.03 | 0.00 | 76 | 1009.2 |
| 20260506000008 | 10 | 360 | 4.8 | 12.9 | 0.00 | 0.03 | 0.00 | 76 | 1009.4 |
| 20260505235532 | 10 | 35 | 8.0 | 12.9 | 0.00 | 0.03 | 0.00 | 76 | 1009.1 |
| 20260505235050 | 10 | 4 | 3.2 | 25.7 | 0.00 | 0.03 | 0.00 | 76 | 1009.2 |
| 20260505234531 | 10 | 360 | 6.4 | 29.0 | 0.00 | 0.03 | 0.00 | 75 | 1009.1 |
| 20260505234053 | 10 | 19 | 3.2 | 22.5 | 0.00 | 0.03 | 0.00 | 75 | 1009.0 |
| 20260505233530 | 10 | 350 | 8.0 | 14.5 | 0.00 | 0.03 | 0.00 | 74 | 1009.2 |
| 20260505233022 | 10 | 43 | 4.8 | 17.7 | 0.00 | 0.03 | 0.00 | 74 | 1008.9 |
| 20260505232548 | 10 | 44 | 4.8 | 17.7 | 0.00 | 0.03 | 0.00 | 74 | 1008.8 |
| 20260505232024 | 10 | 46 | 8.0 | 19.3 | 0.00 | 0.03 | 0.00 | 73 | 1008.7 |
| 20260505231546 | 10 | 6 | 9.7 | 19.3 | 0.00 | 0.03 | 0.00 | 73 | 1009.0 |
| 20260505231007 | 10 | 33 | 6.4 | 17.7 | 0.00 | 0.03 | 0.00 | 72 | 1008.8 |
| 20260505230541 | 10 | 58 | 8.0 | 22.5 | 0.00 | 0.03 | 0.00 | 72 | 1008.6 |
| 20260505230101 | 10 | 8 | 8.0 | 22.5 | 0.00 | 0.03 | 0.00 | 72 | 1008.4 |
| 20260505225524 | 10 | 45 | 6.4 | 19.3 | 0.00 | 0.03 | 0.00 | 73 | 1008.4 |
| 20260505225058 | 10 | 19 | 3.2 | 17.7 | 0.00 | 0.03 | 0.00 | 74 | 1008.1 |
| 20260505224520 | 10 | 57 | 6.4 | 20.9 | 0.00 | 0.03 | 0.00 | 73 | 1008.1 |
| 20260505224049 | 10 | 12 | 6.4 | 20.9 | 0.00 | 0.03 | 0.00 | 73 | 1008.0 |
| 20260505223528 | 11 | 360 | 8.0 | 20.9 | 0.00 | 0.03 | 0.00 | 73 | 1008.1 |
| 20260505223015 | 11 | 42 | 4.8 | 20.9 | 0.00 | 0.03 | 0.00 | 73 | 1007.8 |
| 20260505222528 | 11 | 52 | 6.4 | 16.1 | 0.00 | 0.03 | 0.00 | 73 | 1007.6 |
| 20260505222058 | 11 | 30 | 4.8 | 12.9 | 0.00 | 0.03 | 0.00 | 72 | 1007.6 |
| 20260505221534 | 11 | 37 | 4.8 | 17.7 | 0.00 | 0.03 | 0.00 | 72 | 1007.8 |
| 20260505221011 | 11 | 41 | 6.4 | 30.6 | 0.00 | 0.03 | 0.00 | 72 | 1007.9 |
| 20260505220526 | 11 | 337 | 8.0 | 30.6 | 0.00 | 0.03 | 0.00 | 72 | 1007.9 |
| 20260505220005 | 11 | 360 | 6.4 | 20.9 | 0.00 | 0.03 | 0.00 | 73 | 1007.8 |
| 20260505215526 | 11 | 29 | 4.8 | 20.9 | 0.00 | 0.03 | 0.00 | 73 | 1007.6 |
| 20260505215004 | 11 | 360 | 6.4 | 32.2 | 0.00 | 0.03 | 0.00 | 72 | 1007.7 |
| 20260505214532 | 11 | 39 | 9.7 | 32.2 | 0.00 | 0.03 | 0.00 | 72 | 1007.6 |
| 20260505214103 | 11 | 48 | 4.8 | 24.1 | 0.00 | 0.03 | 0.00 | 72 | 1007.5 |
| 20260505214006 | 11 | 39 | 4.8 | 24.1 | 0.00 | 0.03 | 0.00 | 72 | 1007.5 |
| 20260505213539 | 11 | 35 | 6.4 | 17.7 | 0.00 | 0.03 | 0.00 | 72 | 1007.6 |
| 20260505213023 | 11 | 344 | 8.0 | 19.3 | 0.00 | 0.03 | 0.00 | 72 | 1007.5 |
| 20260505212552 | 11 | 346 | 8.0 | 20.9 | 0.00 | 0.03 | 0.00 | 72 | 1007.3 |
| 20260505212030 | 11 | 355 | 6.4 | 22.5 | 0.00 | 0.03 | 0.00 | 73 | 1007.5 |
| 20260505211508 | 11 | 360 | 8.0 | 30.6 | 0.00 | 0.03 | 0.00 | 73 | 1007.5 |
| 20260505211041 | 11 | 17 | 8.0 | 30.6 | 0.00 | 0.03 | 0.00 | 73 | 1007.3 |
| 20260505210517 | 11 | 25 | 6.4 | 19.3 | 0.00 | 0.03 | 0.00 | 74 | 1007.4 |
| 20260505210055 | 11 | 344 | 6.4 | 16.1 | 0.00 | 0.03 | 0.00 | 74 | 1007.4 |
| 20260505205520 | 11 | 17 | 9.7 | 17.7 | 0.00 | 0.03 | 0.00 | 73 | 1007.4 |
| 20260505205048 | 11 | 343 | 8.0 | 14.5 | 0.00 | 0.03 | 0.00 | 73 | 1007.5 |
| 20260505204530 | 11 | 4 | 8.0 | 14.5 | 0.00 | 0.03 | 0.00 | 74 | 1007.3 |
| 20260505204007 | 11 | 23 | 1.6 | 29.0 | 0.00 | 0.03 | 0.00 | 74 | 1007.2 |
| 20260505203544 | 11 | 23 | 8.0 | 29.0 | 0.00 | 0.03 | 0.00 | 74 | 1007.3 |
| 20260505203021 | 11 | 350 | 8.0 | 17.7 | 0.00 | 0.03 | 0.00 | 74 | 1007.1 |
| 20260505202544 | 11 | 21 | 6.4 | 17.7 | 0.00 | 0.03 | 0.00 | 76 | 1007.1 |
| 20260505202005 | 11 | 325 | 4.8 | 9.7 | 0.00 | 0.03 | 0.00 | 76 | 1007.1 |
| 20260505201548 | 11 | 33 | 1.6 | 16.1 | 0.00 | 0.03 | 0.00 | 77 | 1006.9 |
| 20260505201022 | 11 | 9 | 6.4 | 16.1 | 0.00 | 0.03 | 0.00 | 78 | 1007.0 |
| 20260505200545 | 11 | 355 | 6.4 | 17.7 | 0.00 | 0.03 | 0.00 | 78 | 1007.0 |
| 20260505200020 | 11 | 6 | 6.4 | 19.3 | 0.00 | 0.03 | 0.00 | 78 | 1007.1 |
| 20260505195551 | 11 | 63 | 6.4 | 19.3 | 0.00 | 0.03 | 0.00 | 79 | 1007.2 |
| 20260505195035 | 11 | 360 | 6.4 | 17.7 | 0.00 | 0.03 | 0.00 | 79 | 1007.2 |
| 20260505194519 | 11 | 336 | 6.4 | 24.1 | 0.00 | 0.03 | 0.00 | 79 | 1007.0 |
| 20260505194045 | 11 | 34 | 8.0 | 24.1 | 0.00 | 0.03 | 0.00 | 79 | 1006.9 |
| 20260505193521 | 11 | 8 | 8.0 | 19.3 | 0.00 | 0.03 | 0.00 | 79 | 1006.9 |
| 20260505193054 | 11 | 12 | 8.0 | 19.3 | 0.00 | 0.03 | 0.00 | 79 | 1007.0 |
| 20260505192533 | 11 | 6 | 6.4 | 17.7 | 0.00 | 0.03 | 0.00 | 79 | 1006.8 |
| 20260505192011 | 12 | 331 | 9.7 | 17.7 | 0.00 | 0.03 | 0.00 | 79 | 1006.8 |
| 20260505191542 | 12 | 346 | 6.4 | 17.7 | 0.00 | 0.03 | 0.00 | 79 | 1006.7 |
| 20260505191022 | 12 | 337 | 9.7 | 17.7 | 0.00 | 0.03 | 0.00 | 79 | 1006.7 |
| 20260505190555 | 12 | 360 | 6.4 | 19.3 | 0.00 | 0.03 | 0.00 | 79 | 1006.5 |
| 20260505190039 | 12 | 72 | 8.0 | 19.3 | 0.00 | 0.03 | 0.00 | 79 | 1006.5 |
| 20260505185555 | 12 | 50 | 4.8 | 22.5 | 0.00 | 0.03 | 0.00 | 80 | 1006.4 |
| 20260505185036 | 12 | 350 | 9.7 | 22.5 | 0.00 | 0.03 | 0.00 | 79 | 1006.4 |
| 20260505184512 | 12 | 50 | 6.4 | 20.9 | 0.00 | 0.03 | 0.00 | 80 | 1006.3 |
| 20260505184041 | 12 | 27 | 8.0 | 20.9 | 0.00 | 0.03 | 0.00 | 80 | 1006.4 |
| 20260505183554 | 12 | 4 | 6.4 | 19.3 | 0.00 | 0.03 | 0.00 | 80 | 1006.4 |
| 20260505183046 | 12 | 20 | 8.0 | 14.5 | 0.00 | 0.03 | 0.00 | 81 | 1006.4 |
| 20260505182549 | 12 | 89 | 6.4 | 17.7 | 0.00 | 0.03 | 0.00 | 81 | 1006.5 |
| 20260505182028 | 12 | 355 | 6.4 | 20.9 | 0.00 | 0.03 | 0.00 | 81 | 1006.4 |
| 20260505181557 | 12 | 19 | 6.4 | 20.9 | 0.00 | 0.03 | 0.00 | 82 | 1006.2 |
| 20260505181034 | 12 | 42 | 8.0 | 14.5 | 0.00 | 0.03 | 0.00 | 82 | 1006.0 |
| 20260505180512 | 12 | 6 | 6.4 | 12.9 | 0.00 | 0.03 | 0.00 | 83 | 1006.0 |
| 20260505180043 | 12 | 10 | 4.8 | 16.1 | 0.00 | 0.03 | 0.00 | 83 | 1006.0 |
| 20260505175523 | 12 | 14 | 6.4 | 20.9 | 0.00 | 0.03 | 0.00 | 82 | 1006.1 |
| 20260505175052 | 12 | 336 | 4.8 | 20.9 | 0.00 | 0.03 | 0.00 | 83 | 1005.8 |
| 20260505174530 | 12 | 36 | 8.0 | 19.3 | 0.00 | 0.03 | 0.00 | 83 | 1005.7 |
| 20260505174010 | 12 | 26 | 8.0 | 19.3 | 0.00 | 0.03 | 0.00 | 83 | 1005.8 |
| 20260505173548 | 12 | 339 | 6.4 | 12.9 | 0.00 | 0.03 | 0.00 | 84 | 1005.9 |
| 20260505173011 | 12 | 21 | 4.8 | 12.9 | 0.00 | 0.03 | 0.00 | 84 | 1005.9 |
| 20260505172546 | 12 | 8 | 4.8 | 12.9 | 0.00 | 0.03 | 0.00 | 85 | 1005.7 |
| 20260505172007 | 12 | 6 | 6.4 | 12.9 | 0.00 | 0.03 | 0.00 | 85 | 1005.4 |
| 20260505171530 | 12 | 27 | 4.8 | 14.5 | 0.00 | 0.03 | 0.00 | 85 | 1005.2 |
| 20260505171008 | 12 | 56 | 4.8 | 16.1 | 0.00 | 0.03 | 0.00 | 85 | 1005.1 |
| 20260505170541 | 12 | 96 | 1.6 | 16.1 | 0.00 | 0.03 | 0.00 | 85 | 1005.0 |
| 20260505170020 | 12 | 52 | 4.8 | 12.9 | 0.00 | 0.03 | 0.00 | 85 | 1005.0 |
| 20260505165551 | 12 | 19 | 4.8 | 12.9 | 0.00 | 0.03 | 0.00 | 85 | 1005.0 |
| 20260505165029 | 12 | 22 | 4.8 | 12.9 | 0.00 | 0.03 | 0.00 | 85 | 1004.9 |
| 20260505164512 | 12 | 34 | 4.8 | 12.9 | 0.00 | 0.03 | 0.00 | 86 | 1004.8 |
| 20260505164049 | 12 | 320 | 4.8 | 17.7 | 0.00 | 0.03 | 0.00 | 86 | 1004.8 |
| 20260505163524 | 12 | 344 | 6.4 | 17.7 | 0.00 | 0.03 | 0.00 | 86 | 1004.9 |
| 20260505163054 | 12 | 346 | 4.8 | 19.3 | 0.00 | 0.03 | 0.00 | 86 | 1004.9 |
| 20260505162527 | 12 | 16 | 6.4 | 20.9 | 0.00 | 0.03 | 0.00 | 85 | 1004.8 |
| 20260505162059 | 12 | 12 | 9.7 | 20.9 | 0.00 | 0.03 | 0.00 | 85 | 1004.6 |
| 20260505162007 | 12 | 326 | 9.7 | 20.9 | 0.00 | 0.03 | 0.00 | 86 | 1004.5 |
| 20260505161547 | 12 | 21 | 6.4 | 29.0 | 0.00 | 0.03 | 0.00 | 86 | 1004.5 |
| 20260505161014 | 12 | 62 | 11.3 | 29.0 | 0.00 | 0.03 | 0.00 | 86 | 1004.5 |
| 20260505160533 | 13 | 350 | 4.8 | 12.9 | 0.00 | 0.03 | 0.00 | 86 | 1004.4 |
| 20260505153031 | 14 | 350 | 4.8 | 14.5 | 0.00 | 0.03 | 0.00 | 86 | 1004.0 |
| 20260505152600 | 14 | 350 | 4.8 | 14.5 | 0.00 | 0.03 | 0.00 | 86 | 1004.0 |
| 20260505152501 | 14 | 350 | 4.8 | 14.5 | 0.00 | 0.03 | 0.00 | 86 | 1003.9 |
| 20260505152035 | 14 | 19 | 1.6 | 14.5 | 0.00 | 0.03 | 0.00 | 86 | 1003.9 |
| 20260505151511 | 15 | 350 | 4.8 | 14.5 | 0.00 | 0.03 | 0.00 | 85 | 1003.7 |
| 20260505151044 | 15 | 350 | 4.8 | 12.9 | 0.00 | 0.03 | 0.00 | 85 | 1003.7 |
| 20260505150519 | 15 | 355 | 4.8 | 14.5 | 0.00 | 0.03 | 0.00 | 85 | 1003.6 |
| 20260505140543 | 17 | 81 | 3.2 | 12.9 | 0.00 | 0.03 | 0.00 | 85 | 1002.4 |
| 20260505125023 | 18 | 54 | 3.2 | 11.3 | 0.00 | 0.03 | 0.00 | 82 | 1002.6 |
| 20260505124549 | 18 | 77 | 1.6 | 9.7 | 0.00 | 0.03 | 0.00 | 83 | 1002.6 |
| 20260505124021 | 17 | 62 | 1.6 | 9.7 | 0.00 | 0.03 | 0.00 | 82 | 1002.8 |
| 20260505123555 | 17 | 65 | 1.6 | 6.4 | 0.00 | 0.03 | 0.00 | 82 | 1002.6 |
| 20260505123038 | 17 | 44 | 1.6 | 6.4 | 0.00 | 0.03 | 0.00 | 82 | 1002.7 |
| 20260505122513 | 17 | 46 | 1.6 | 9.7 | 0.00 | 0.03 | 0.00 | 83 | 1002.6 |
| 20260505122048 | 17 | 50 | 3.2 | 11.3 | 0.00 | 0.03 | 0.00 | 82 | 1002.2 |
| 20260505121528 | 17 | 137 | 3.2 | 11.3 | 0.00 | 0.03 | 0.00 | 82 | 1001.9 |
| 20260505121005 | 17 | 139 | 4.8 | 12.9 | 0.00 | 0.03 | 0.00 | 83 | 1001.8 |
| 20260505120540 | 17 | 136 | 4.8 | 12.9 | 0.00 | 0.03 | 0.00 | 82 | 1001.7 |
| 20260505120017 | 17 | 138 | 1.6 | 14.5 | 0.00 | 0.03 | 0.00 | 82 | 1001.7 |
| 20260505115553 | 17 | 146 | 6.4 | 14.5 | 0.00 | 0.03 | 0.00 | 83 | 1001.7 |
| 20260505115036 | 17 | 110 | 1.6 | 9.7 | 0.00 | 0.03 | 0.00 | 83 | 1001.7 |
| 20260505114553 | 17 | 141 | 3.2 | 11.3 | 0.00 | 0.03 | 0.00 | 83 | 1001.8 |
| 20260505114035 | 17 | 129 | 3.2 | 9.7 | 0.00 | 0.03 | 0.00 | 83 | 1001.7 |
| 20260505113554 | 17 | 152 | 1.6 | 9.7 | 0.00 | 0.03 | 0.00 | 83 | 1001.8 |
| 20260505113025 | 17 | 130 | 0.0 | 11.3 | 0.00 | 0.03 | 0.00 | 83 | 1001.9 |
| 20260505112557 | 17 | 112 | 1.6 | 11.3 | 0.00 | 0.03 | 0.00 | 83 | 1001.9 |
| 20260505112039 | 17 | 81 | 1.6 | 12.9 | 0.00 | 0.03 | 0.00 | 83 | 1001.9 |
| 20260505111555 | 17 | 71 | 3.2 | 12.9 | 0.00 | 0.03 | 0.00 | 83 | 1001.9 |
| 20260505111015 | 17 | 116 | 1.6 | 9.7 | 0.00 | 0.03 | 0.00 | 83 | 1001.9 |
| 20260505110552 | 17 | 62 | 1.6 | 12.9 | 0.00 | 0.03 | 0.00 | 83 | 1001.9 |
| 20260505102024 | 17 | 59 | 3.2 | 16.1 | 0.00 | 0.03 | 0.00 | 86 | 1001.5 |
| 20260505101506 | 17 | 46 | 4.8 | 17.7 | 0.00 | 0.03 | 0.00 | 86 | 1001.5 |
| 20260505101027 | 17 | 34 | 4.8 | 14.5 | 0.00 | 0.03 | 0.00 | 86 | 1001.4 |
| 20260505100503 | 17 | 79 | 6.4 | 14.5 | 0.00 | 0.03 | 0.00 | 87 | 1001.3 |
| 20260505100023 | 17 | 83 | 3.2 | 14.5 | 0.00 | 0.03 | 0.00 | 87 | 1001.4 |
| 20260505095545 | 17 | 60 | 6.4 | 14.5 | 0.00 | 0.03 | 0.00 | 87 | 1001.4 |
| 20260505095023 | 17 | 51 | 4.8 | 14.5 | 0.00 | 0.03 | 0.00 | 87 | 1001.6 |
| 20260505094543 | 17 | 51 | 6.4 | 14.5 | 0.00 | 0.03 | 0.00 | 87 | 1001.5 |
| 20260505094011 | 17 | 48 | 6.4 | 14.5 | 0.00 | 0.03 | 0.00 | 87 | 1001.5 |
| 20260505093547 | 17 | 81 | 4.8 | 14.5 | 0.00 | 0.03 | 0.00 | 87 | 1001.4 |
| 20260505093007 | 17 | 41 | 4.8 | 11.3 | 0.00 | 0.03 | 0.00 | 87 | 1001.4 |
| 20260505092529 | 17 | 58 | 4.8 | 12.9 | 0.00 | 0.03 | 0.00 | 87 | 1001.5 |
| 20260505092009 | 17 | 50 | 3.2 | 11.3 | 0.00 | 0.03 | 0.00 | 87 | 1001.5 |
| 20260505091535 | 17 | 114 | 3.2 | 9.7 | 0.00 | 0.03 | 0.00 | 87 | 1001.4 |
| 20260505091017 | 17 | 56 | 1.6 | 12.9 | 0.00 | 0.03 | 0.00 | 87 | 1001.4 |
| 20260505090534 | 17 | 89 | 1.6 | 12.9 | 0.00 | 0.03 | 0.00 | 87 | 1001.5 |
| 20260505090057 | 17 | 75 | 0.0 | 14.5 | 0.00 | 0.03 | 0.00 | 87 | 1001.4 |
| 20260505085539 | 16 | 58 | 4.8 | 19.3 | 0.00 | 0.03 | 0.00 | 87 | 1001.3 |
| 20260505085057 | 16 | 45 | 3.2 | 19.3 | 0.00 | 0.03 | 0.00 | 86 | 1001.4 |
| 20260505084544 | 16 | 63 | 3.2 | 11.3 | 0.00 | 0.03 | 0.00 | 86 | 1001.4 |
| 20260505084057 | 16 | 46 | 1.6 | 8.0 | 0.00 | 0.03 | 0.00 | 85 | 1001.4 |
| 20260505083536 | 16 | 116 | 1.6 | 11.3 | 0.00 | 0.03 | 0.00 | 85 | 1001.4 |
| 20260505083054 | 17 | 6 | 1.6 | 12.9 | 0.00 | 0.03 | 0.00 | 85 | 1001.4 |
| 20260505082516 | 17 | 69 | 3.2 | 17.7 | 0.00 | 0.03 | 0.00 | 84 | 1001.4 |
| 20260505082053 | 17 | 71 | 6.4 | 17.7 | 0.00 | 0.03 | 0.00 | 84 | 1001.4 |
| 20260505081519 | 17 | 17 | 4.8 | 11.3 | 0.00 | 0.03 | 0.00 | 84 | 1001.5 |
| 20260505081053 | 17 | 66 | 6.4 | 9.7 | 0.00 | 0.03 | 0.00 | 84 | 1001.6 |
| 20260505080518 | 17 | 66 | 6.4 | 11.3 | 0.00 | 0.03 | 0.00 | 84 | 1001.5 |
| 20260505080106 | 17 | 58 | 3.2 | 16.1 | 0.00 | 0.03 | 0.00 | 84 | 1001.4 |
| 20260505075516 | 17 | 43 | 6.4 | 16.1 | 0.00 | 0.03 | 0.00 | 84 | 1001.4 |
| 20260505075050 | 17 | 65 | 4.8 | 14.5 | 0.00 | 0.03 | 0.00 | 84 | 1001.5 |
| 20260505074515 | 17 | 103 | 6.4 | 16.1 | 0.00 | 0.03 | 0.00 | 84 | 1001.6 |
| 20260505074036 | 17 | 50 | 6.4 | 16.1 | 0.00 | 0.03 | 0.00 | 83 | 1001.7 |
| 20260505073512 | 17 | 37 | 4.8 | 16.1 | 0.00 | 0.03 | 0.00 | 82 | 1001.7 |
| 20260505073037 | 17 | 58 | 8.0 | 16.1 | 0.00 | 0.03 | 0.00 | 81 | 1001.8 |
| 20260505072511 | 17 | 69 | 6.4 | 16.1 | 0.00 | 0.03 | 0.00 | 80 | 1002.0 |
| 20260505072031 | 17 | 39 | 6.4 | 16.1 | 0.00 | 0.03 | 0.00 | 79 | 1002.1 |
| 20260505071519 | 18 | 355 | 4.8 | 16.1 | 0.00 | 0.03 | 0.00 | 78 | 1002.3 |
| 20260505071049 | 18 | 35 | 3.2 | 12.9 | 0.00 | 0.03 | 0.00 | 77 | 1002.4 |
| 20260505070504 | 18 | 31 | 3.2 | 16.1 | 0.00 | 0.03 | 0.00 | 78 | 1002.5 |
| 20260505070038 | 18 | 66 | 4.8 | 16.1 | 0.00 | 0.03 | 0.00 | 78 | 1002.7 |
| 20260505065514 | 18 | 69 | 3.2 | 9.7 | 0.00 | 0.03 | 0.00 | 80 | 1002.7 |
| 20260505065032 | 18 | 53 | 1.6 | 8.0 | 0.00 | 0.03 | 0.00 | 80 | 1002.8 |
| 20260505064600 | 19 | 38 | 1.6 | 9.7 | 0.00 | 0.03 | 0.00 | 79 | 1002.9 |
| 20260505064032 | 19 | 40 | 3.2 | 9.7 | 0.00 | 0.03 | 0.00 | 79 | 1002.9 |
| 20260505063511 | 19 | 350 | 0.0 | 6.4 | 0.00 | 0.03 | 0.00 | 79 | 1002.8 |
| 20260505063033 | 19 | 350 | 1.6 | 8.0 | 0.00 | 0.03 | 0.00 | 78 | 1002.9 |
| 20260505062547 | 19 | 350 | 1.6 | 8.0 | 0.00 | 0.03 | 0.00 | 78 | 1003.0 |
| 20260505062034 | 19 | 345 | 3.2 | 8.0 | 0.00 | 0.03 | 0.00 | 78 | 1003.1 |
| 20260505061552 | 18 | 345 | 3.2 | 12.9 | 0.00 | 0.03 | 0.00 | 78 | 1003.2 |
| 20260505061034 | 18 | 343 | 4.8 | 17.7 | 0.00 | 0.03 | 0.00 | 78 | 1003.2 |
| 20260505060546 | 19 | 339 | 6.4 | 17.7 | 0.00 | 0.03 | 0.00 | 78 | 1003.2 |